owner,sensor,date,latitude,longitude,vertical_datum,wind_speed,wind_to_direction,wind_speed_of_gust,qcFlag 
NDBC,ioos:station:wmo:42003:1,2013-10-01T00:50:00Z,26.0070,-85.6480,5.0,5.0,80.0,6.0,'1111122,1111122,1111122' 
NDBC,ioos:station:wmo:42003:1,2013-10-01T01:50:00Z,26.0070,-85.6480,5.0,5.0,90.0,6.0,'1111122,1111122,1111122' 
NDBC,ioos:station:wmo:42003:1,2013-10-01T02:50:00Z,26.0070,-85.6480,5.0,5.0,90.0,6.0,'1111122,1111122,1111122' 
NDBC,ioos:station:wmo:42003:1,2013-10-01T03:50:00Z,26.0070,-85.6480,5.0,6.0,90.0,7.0,'1111122,1111122,1111122' 
NDBC,ioos:station:wmo:42003:1,2013-10-01T04:50:00Z,26.0070,-85.6480,5.0,6.0,90.0,7.0,'1111122,1111122,1111122' 
NDBC,ioos:station:wmo:42003:1,2013-10-01T05:50:00Z,26.0070,-85.6480,5.0,7.0,110.0,8.0,'1111122,1111122,1111122' 
NDBC,ioos:station:wmo:42003:1,2013-10-01T06:50:00Z,26.0070,-85.6480,5.0,6.0,110.0,7.0,'1111122,1111122,1111122' 
NDBC,ioos:station:wmo:42003:1,2013-10-01T07:50:00Z,26.0070,-85.6480,5.0,7.0,120.0,8.0,'1111122,1111122,1111122' 
NDBC,ioos:station:wmo:42003:1,2013-10-01T08:50:00Z,26.0070,-85.6480,5.0,6.0,110.0,8.0,'1111122,1111122,1111122' 
NDBC,ioos:station:wmo:42003:1,2013-10-01T09:50:00Z,26.0070,-85.6480,5.0,7.0,110.0,8.0,'1111122,1111122,1111122' 
NDBC,ioos:station:wmo:42003:1,2013-10-01T10:50:00Z,26.0070,-85.6480,5.0,6.0,120.0,7.0,'1111122,1111122,1111122' 
NDBC,ioos:station:wmo:42003:1,2013-10-01T11:50:00Z,26.0070,-85.6480,5.0,5.0,110.0,6.0,'1111122,1111122,1111122' 
NDBC,ioos:station:wmo:42003:1,2013-10-01T12:50:00Z,26.0070,-85.6480,5.0,5.0,100.0,6.0,'1111122,1111122,1111122' 
NDBC,ioos:station:wmo:42003:1,2013-10-01T13:50:00Z,26.0070,-85.6480,5.0,5.0,100.0,6.0,'1111122,1111122,1111122' 
NDBC,ioos:station:wmo:42003:1,2013-10-01T14:50:00Z,26.0070,-85.6480,5.0,5.0,110.0,6.0,'1111122,1111122,1111122' 
NDBC,ioos:station:wmo:42003:1,2013-10-01T15:50:00Z,26.0070,-85.6480,5.0,4.0,110.0,5.0,'1111122,1111122,1111122' 
NDBC,ioos:station:wmo:42003:1,2013-10-01T16:50:00Z,26.0070,-85.6480,5.0,4.0,110.0,5.0,'1111122,1111122,1111122' 
NDBC,ioos:station:wmo:42003:1,2013-10-01T17:50:00Z,26.0070,-85.6480,5.0,5.0,120.0,5.0,'1111122,1111122,1111122' 
NDBC,ioos:station:wmo:42003:1,2013-10-01T18:50:00Z,26.0070,-85.6480,5.0,4.0,110.0,5.0,'1111122,1111122,1111122' 
NDBC,ioos:station:wmo:42003:1,2013-10-01T19:50:00Z,26.0070,-85.6480,5.0,3.0,90.0,5.0,'1111122,1111122,1111122' 
NDBC,ioos:station:wmo:42003:1,2013-10-01T20:50:00Z,26.0070,-85.6480,5.0,3.0,90.0,4.0,'1111122,1111122,1111122' 
NDBC,ioos:station:wmo:42003:1,2013-10-01T21:50:00Z,26.0070,-85.6480,5.0,4.0,90.0,5.0,'1111122,1111122,1111122' 
NDBC,ioos:station:wmo:42003:1,2013-10-01T22:50:00Z,26.0070,-85.6480,5.0,4.0,100.0,5.0,'1111122,1111122,1111122' 
NDBC,ioos:station:wmo:42003:1,2013-10-01T23:50:00Z,26.0070,-85.6480,5.0,5.0,110.0,5.0,'1111122,1111122,1111122' 
NDBC,ioos:station:wmo:42003:1,2013-10-02T00:50:00Z,26.0070,-85.6480,5.0,5.0,80.0,6.0,'1111122,1111122,1111122' 
NDBC,ioos:station:wmo:42003:1,2013-10-02T01:50:00Z,26.0070,-85.6480,5.0,7.0,50.0,9.0,'1111122,1111122,1111122' 
NDBC,ioos:station:wmo:42003:1,2013-10-02T02:50:00Z,26.0070,-85.6480,5.0,7.0,40.0,9.0,'1111122,1111122,1111122' 
NDBC,ioos:station:wmo:42003:1,2013-10-02T03:50:00Z,26.0070,-85.6480,5.0,7.0,70.0,9.0,'1111122,1111122,1111122' 
NDBC,ioos:station:wmo:42003:1,2013-10-02T04:50:00Z,26.0070,-85.6480,5.0,7.0,90.0,10.0,'1111122,1111122,1111122' 
NDBC,ioos:station:wmo:42003:1,2013-10-02T05:50:00Z,26.0070,-85.6480,5.0,7.0,100.0,8.0,'1111122,1111122,1111122' 
NDBC,ioos:station:wmo:42003:1,2013-10-02T06:50:00Z,26.0070,-85.6480,5.0,6.0,90.0,8.0,'1111122,1111122,1111122' 
NDBC,ioos:station:wmo:42003:1,2013-10-02T07:50:00Z,26.0070,-85.6480,5.0,6.0,80.0,7.0,'1111122,1111122,1111122' 
NDBC,ioos:station:wmo:42003:1,2013-10-02T08:50:00Z,26.0070,-85.6480,5.0,6.0,90.0,8.0,'1111122,1111122,1111122' 
NDBC,ioos:station:wmo:42003:1,2013-10-02T09:50:00Z,26.0070,-85.6480,5.0,7.0,90.0,8.0,'1111122,1111122,1111122' 
NDBC,ioos:station:wmo:42003:1,2013-10-02T10:50:00Z,26.0070,-85.6480,5.0,8.0,90.0,9.0,'1111122,1111122,1111122' 
NDBC,ioos:station:wmo:42003:1,2013-10-02T11:50:00Z,26.0070,-85.6480,5.0,7.0,80.0,9.0,'1111122,1111122,1111122' 
NDBC,ioos:station:wmo:42003:1,2013-10-02T12:50:00Z,26.0070,-85.6480,5.0,8.0,90.0,9.0,'1111122,1111122,1111122' 
NDBC,ioos:station:wmo:42003:1,2013-10-02T13:50:00Z,26.0070,-85.6480,5.0,9.0,90.0,10.0,'1111122,1111122,1111122' 
NDBC,ioos:station:wmo:42003:1,2013-10-02T14:50:00Z,26.0070,-85.6480,5.0,9.0,90.0,10.0,'1111122,1111122,1111122' 
NDBC,ioos:station:wmo:42003:1,2013-10-02T15:50:00Z,26.0070,-85.6480,5.0,9.0,80.0,11.0,'1111122,1111122,1111122' 
NDBC,ioos:station:wmo:42003:1,2013-10-02T16:50:00Z,26.0070,-85.6480,5.0,9.0,90.0,10.0,'1111122,1111122,1111122' 
NDBC,ioos:station:wmo:42003:1,2013-10-02T17:50:00Z,26.0070,-85.6480,5.0,10.0,100.0,11.0,'1111122,1111122,1111122' 
NDBC,ioos:station:wmo:42003:1,2013-10-02T18:50:00Z,26.0070,-85.6480,5.0,9.0,80.0,11.0,'1111122,1111122,1111122' 
NDBC,ioos:station:wmo:42003:1,2013-10-02T19:50:00Z,26.0070,-85.6480,5.0,8.0,100.0,10.0,'1111122,1111122,1111122' 
NDBC,ioos:station:wmo:42003:1,2013-10-02T20:50:00Z,26.0070,-85.6480,5.0,9.0,100.0,11.0,'1111122,1111122,1111122' 
NDBC,ioos:station:wmo:42003:1,2013-10-02T21:50:00Z,26.0070,-85.6480,5.0,8.0,80.0,9.0,'1111122,1111122,1111122' 
NDBC,ioos:station:wmo:42003:1,2013-10-02T22:50:00Z,26.0070,-85.6480,5.0,7.0,100.0,8.0,'1111122,1111122,1111122' 
NDBC,ioos:station:wmo:42003:1,2013-10-02T23:50:00Z,26.0070,-85.6480,5.0,8.0,80.0,10.0,'1111122,1111122,1111122' 
NDBC,ioos:station:wmo:42003:1,2013-10-03T00:50:00Z,26.0070,-85.6480,5.0,11.0,150.0,13.0,'1111122,1111122,1111122' 
NDBC,ioos:station:wmo:42003:1,2013-10-03T01:50:00Z,26.0070,-85.6480,5.0,8.0,140.0,10.0,'1111122,1111122,1111122' 
NDBC,ioos:station:wmo:42003:1,2013-10-03T02:50:00Z,26.0070,-85.6480,5.0,9.0,130.0,11.0,'1111122,1111122,1111122' 
NDBC,ioos:station:wmo:42003:1,2013-10-03T03:50:00Z,26.0070,-85.6480,5.0,5.0,130.0,6.0,'1111122,1111122,1111122' 
NDBC,ioos:station:wmo:42003:1,2013-10-03T04:50:00Z,26.0070,-85.6480,5.0,4.0,110.0,5.0,'1111122,1111122,1111122' 
NDBC,ioos:station:wmo:42003:1,2013-10-03T05:50:00Z,26.0070,-85.6480,5.0,5.0,90.0,6.0,'1111122,1111122,1111122' 
NDBC,ioos:station:wmo:42003:1,2013-10-03T06:50:00Z,26.0070,-85.6480,5.0,6.0,90.0,7.0,'1111122,1111122,1111122' 
NDBC,ioos:station:wmo:42003:1,2013-10-03T07:50:00Z,26.0070,-85.6480,5.0,6.0,100.0,8.0,'1111122,1111122,1111122' 
NDBC,ioos:station:wmo:42003:1,2013-10-03T08:50:00Z,26.0070,-85.6480,5.0,6.0,110.0,7.0,'1111122,1111122,1111122' 
NDBC,ioos:station:wmo:42003:1,2013-10-03T09:50:00Z,26.0070,-85.6480,5.0,6.0,110.0,7.0,'1111122,1111122,1111122' 
NDBC,ioos:station:wmo:42003:1,2013-10-03T10:50:00Z,26.0070,-85.6480,5.0,6.0,110.0,8.0,'1111122,1111122,1111122' 
NDBC,ioos:station:wmo:42003:1,2013-10-03T11:50:00Z,26.0070,-85.6480,5.0,7.0,100.0,9.0,'1111122,1111122,1111122' 
NDBC,ioos:station:wmo:42003:1,2013-10-03T12:50:00Z,26.0070,-85.6480,5.0,8.0,100.0,9.0,'1111122,1111122,1111122' 
NDBC,ioos:station:wmo:42003:1,2013-10-03T13:50:00Z,26.0070,-85.6480,5.0,7.0,110.0,9.0,'1111122,1111122,1111122' 
NDBC,ioos:station:wmo:42003:1,2013-10-03T14:50:00Z,26.0070,-85.6480,5.0,8.0,110.0,9.0,'1111122,1111122,1111122' 
NDBC,ioos:station:wmo:42003:1,2013-10-03T15:50:00Z,26.0070,-85.6480,5.0,9.0,120.0,11.0,'1111122,1111122,1111122' 
NDBC,ioos:station:wmo:42003:1,2013-10-03T16:50:00Z,26.0070,-85.6480,5.0,8.0,110.0,9.0,'1111122,1111122,1111122' 
NDBC,ioos:station:wmo:42003:1,2013-10-03T17:50:00Z,26.0070,-85.6480,5.0,7.0,90.0,8.0,'1111122,1111122,1111122' 
NDBC,ioos:station:wmo:42003:1,2013-10-03T18:50:00Z,26.0070,-85.6480,5.0,7.0,100.0,8.0,'1111122,1111122,1111122' 
NDBC,ioos:station:wmo:42003:1,2013-10-03T19:50:00Z,26.0070,-85.6480,5.0,3.0,140.0,4.0,'1111122,1111122,1111122' 
NDBC,ioos:station:wmo:42003:1,2013-10-03T20:50:00Z,26.0070,-85.6480,5.0,2.0,120.0,3.0,'1111122,1111122,1111122' 
NDBC,ioos:station:wmo:42003:1,2013-10-03T21:50:00Z,26.0070,-85.6480,5.0,4.0,90.0,5.0,'1111122,1111122,1111122' 
NDBC,ioos:station:wmo:42003:1,2013-10-03T22:50:00Z,26.0070,-85.6480,5.0,4.0,90.0,4.0,'1111122,1111122,1111122' 
NDBC,ioos:station:wmo:42003:1,2013-10-03T23:50:00Z,26.0070,-85.6480,5.0,4.0,90.0,5.0,'1111122,1111122,1111122' 
NDBC,ioos:station:wmo:42003:1,2013-10-04T00:50:00Z,26.0070,-85.6480,5.0,6.0,90.0,7.0,'1111122,1111122,1111122' 
NDBC,ioos:station:wmo:42003:1,2013-10-04T01:50:00Z,26.0070,-85.6480,5.0,7.0,100.0,8.0,'1111122,1111122,1111122' 
NDBC,ioos:station:wmo:42003:1,2013-10-04T02:50:00Z,26.0070,-85.6480,5.0,6.0,110.0,7.0,'1111122,1111122,1111122' 
NDBC,ioos:station:wmo:42003:1,2013-10-04T03:50:00Z,26.0070,-85.6480,5.0,6.0,120.0,7.0,'1111122,1111122,1111122' 
NDBC,ioos:station:wmo:42003:1,2013-10-04T04:50:00Z,26.0070,-85.6480,5.0,6.0,120.0,7.0,'1111122,1111122,1111122' 
NDBC,ioos:station:wmo:42003:1,2013-10-04T05:50:00Z,26.0070,-85.6480,5.0,7.0,90.0,8.0,'1111122,1111122,1111122' 
NDBC,ioos:station:wmo:42003:1,2013-10-04T06:50:00Z,26.0070,-85.6480,5.0,7.0,100.0,8.0,'1111122,1111122,1111122' 
NDBC,ioos:station:wmo:42003:1,2013-10-04T08:50:00Z,26.0070,-85.6480,5.0,9.0,100.0,10.0,'1111122,1111122,1111122' 
NDBC,ioos:station:wmo:42003:1,2013-10-04T09:50:00Z,26.0070,-85.6480,5.0,9.0,110.0,11.0,'1111122,1111122,1111122' 
NDBC,ioos:station:wmo:42003:1,2013-10-04T10:50:00Z,26.0070,-85.6480,5.0,9.0,120.0,10.0,'1111122,1111122,1111122' 
NDBC,ioos:station:wmo:42003:1,2013-10-04T11:50:00Z,26.0070,-85.6480,5.0,8.0,130.0,9.0,'1111122,1111122,1111122' 
NDBC,ioos:station:wmo:42003:1,2013-10-04T12:50:00Z,26.0070,-85.6480,5.0,6.0,130.0,8.0,'1111122,1111122,1111122' 
NDBC,ioos:station:wmo:42003:1,2013-10-04T13:50:00Z,26.0070,-85.6480,5.0,7.0,100.0,9.0,'1111122,1111122,1111122' 
NDBC,ioos:station:wmo:42003:1,2013-10-04T14:50:00Z,26.0070,-85.6480,5.0,7.0,110.0,9.0,'1111122,1111122,1111122' 
NDBC,ioos:station:wmo:42003:1,2013-10-04T15:50:00Z,26.0070,-85.6480,5.0,7.0,110.0,8.0,'1111122,1111122,1111122' 
NDBC,ioos:station:wmo:42003:1,2013-10-04T16:50:00Z,26.0070,-85.6480,5.0,6.0,110.0,7.0,'1111122,1111122,1111122' 
NDBC,ioos:station:wmo:42003:1,2013-10-04T17:50:00Z,26.0070,-85.6480,5.0,5.0,100.0,6.0,'1111122,1111122,1111122' 
NDBC,ioos:station:wmo:42003:1,2013-10-04T18:50:00Z,26.0070,-85.6480,5.0,5.0,120.0,6.0,'1111122,1111122,1111122' 
NDBC,ioos:station:wmo:42003:1,2013-10-04T19:50:00Z,26.0070,-85.6480,5.0,4.0,120.0,6.0,'1111122,1111122,1111122' 
NDBC,ioos:station:wmo:42003:1,2013-10-04T20:50:00Z,26.0070,-85.6480,5.0,6.0,80.0,7.0,'1111122,1111122,1111122' 
NDBC,ioos:station:wmo:42003:1,2013-10-04T21:50:00Z,26.0070,-85.6480,5.0,5.0,70.0,6.0,'1111122,1111122,1111122' 
NDBC,ioos:station:wmo:42003:1,2013-10-04T22:50:00Z,26.0070,-85.6480,5.0,6.0,90.0,7.0,'1111122,1111122,1111122' 
NDBC,ioos:station:wmo:42003:1,2013-10-04T23:50:00Z,26.0070,-85.6480,5.0,5.0,110.0,6.0,'1111122,1111122,1111122' 
NDBC,ioos:station:wmo:42003:1,2013-10-05T00:50:00Z,26.0070,-85.6480,5.0,6.0,120.0,7.0,'1111122,1111122,1111122' 
NDBC,ioos:station:wmo:42003:1,2013-10-05T01:50:00Z,26.0070,-85.6480,5.0,7.0,100.0,9.0,'1111122,1111122,1111122' 
NDBC,ioos:station:wmo:42003:1,2013-10-05T02:50:00Z,26.0070,-85.6480,5.0,7.0,110.0,8.0,'1111122,1111122,1111122' 
NDBC,ioos:station:wmo:42003:1,2013-10-05T03:50:00Z,26.0070,-85.6480,5.0,7.0,90.0,8.0,'1111122,1111122,1111122' 
NDBC,ioos:station:wmo:42003:1,2013-10-05T04:50:00Z,26.0070,-85.6480,5.0,8.0,80.0,10.0,'1111122,1111122,1111122' 
NDBC,ioos:station:wmo:42003:1,2013-10-05T05:50:00Z,26.0070,-85.6480,5.0,6.0,100.0,7.0,'1111122,1111122,1111122' 
NDBC,ioos:station:wmo:42003:1,2013-10-05T06:50:00Z,26.0070,-85.6480,5.0,6.0,110.0,7.0,'1111122,1111122,1111122' 
NDBC,ioos:station:wmo:42003:1,2013-10-05T07:50:00Z,26.0070,-85.6480,5.0,5.0,100.0,7.0,'1111122,1111122,1111122' 
NDBC,ioos:station:wmo:42003:1,2013-10-05T08:50:00Z,26.0070,-85.6480,5.0,7.0,90.0,8.0,'1111122,1111122,1111122' 
NDBC,ioos:station:wmo:42003:1,2013-10-05T09:50:00Z,26.0070,-85.6480,5.0,8.0,100.0,9.0,'1111122,1111122,1111122' 
NDBC,ioos:station:wmo:42003:1,2013-10-05T10:50:00Z,26.0070,-85.6480,5.0,8.0,100.0,9.0,'1111122,1111122,1111122' 
NDBC,ioos:station:wmo:42003:1,2013-10-05T11:50:00Z,26.0070,-85.6480,5.0,8.0,110.0,9.0,'1111122,1111122,1111122' 
NDBC,ioos:station:wmo:42003:1,2013-10-05T12:50:00Z,26.0070,-85.6480,5.0,7.0,110.0,8.0,'1111122,1111122,1111122' 
NDBC,ioos:station:wmo:42003:1,2013-10-05T13:50:00Z,26.0070,-85.6480,5.0,6.0,120.0,8.0,'1111122,1111122,1111122' 
NDBC,ioos:station:wmo:42003:1,2013-10-05T14:50:00Z,26.0070,-85.6480,5.0,5.0,120.0,6.0,'1111122,1111122,1111122' 
NDBC,ioos:station:wmo:42003:1,2013-10-05T15:50:00Z,26.0070,-85.6480,5.0,5.0,120.0,5.0,'1111122,1111122,1111122' 
NDBC,ioos:station:wmo:42003:1,2013-10-05T16:50:00Z,26.0070,-85.6480,5.0,3.0,110.0,4.0,'1111122,1111122,1111122' 
NDBC,ioos:station:wmo:42003:1,2013-10-05T17:50:00Z,26.0070,-85.6480,5.0,4.0,120.0,5.0,'1111122,1111122,1111122' 
NDBC,ioos:station:wmo:42003:1,2013-10-05T18:50:00Z,26.0070,-85.6480,5.0,4.0,120.0,5.0,'1111122,1111122,1111122' 
NDBC,ioos:station:wmo:42003:1,2013-10-05T19:50:00Z,26.0070,-85.6480,5.0,5.0,90.0,6.0,'1111122,1111122,1111122' 
NDBC,ioos:station:wmo:42003:1,2013-10-05T20:50:00Z,26.0070,-85.6480,5.0,5.0,90.0,6.0,'1111122,1111122,1111122' 
NDBC,ioos:station:wmo:42003:1,2013-10-05T21:50:00Z,26.0070,-85.6480,5.0,5.0,90.0,6.0,'1111122,1111122,1111122' 
NDBC,ioos:station:wmo:42003:1,2013-10-05T22:50:00Z,26.0070,-85.6480,5.0,5.0,110.0,6.0,'1111122,1111122,1111122' 
NDBC,ioos:station:wmo:42003:1,2013-10-05T23:50:00Z,26.0070,-85.6480,5.0,5.0,110.0,7.0,'1111122,1111122,1111122' 
NDBC,ioos:station:wmo:42003:1,2013-10-06T00:50:00Z,26.0070,-85.6480,5.0,7.0,90.0,8.0,'1111122,1111122,1111122' 
NDBC,ioos:station:wmo:42003:1,2013-10-06T01:50:00Z,26.0070,-85.6480,5.0,6.0,110.0,7.0,'1111122,1111122,1111122' 
NDBC,ioos:station:wmo:42003:1,2013-10-06T02:50:00Z,26.0070,-85.6480,5.0,7.0,110.0,8.0,'1111122,1111122,1111122' 
NDBC,ioos:station:wmo:42003:1,2013-10-06T03:50:00Z,26.0070,-85.6480,5.0,6.0,110.0,7.0,'1111122,1111122,1111122' 
NDBC,ioos:station:wmo:42003:1,2013-10-06T04:50:00Z,26.0070,-85.6480,5.0,5.0,130.0,6.0,'1111122,1111122,1111122' 
NDBC,ioos:station:wmo:42003:1,2013-10-06T05:50:00Z,26.0070,-85.6480,5.0,6.0,100.0,8.0,'1111122,1111122,1111122' 
NDBC,ioos:station:wmo:42003:1,2013-10-06T06:50:00Z,26.0070,-85.6480,5.0,7.0,110.0,8.0,'1111122,1111122,1111122' 
NDBC,ioos:station:wmo:42003:1,2013-10-06T07:50:00Z,26.0070,-85.6480,5.0,6.0,120.0,7.0,'1111122,1111122,1111122' 
NDBC,ioos:station:wmo:42003:1,2013-10-06T08:50:00Z,26.0070,-85.6480,5.0,5.0,140.0,6.0,'1111122,1111122,1111122' 
NDBC,ioos:station:wmo:42003:1,2013-10-06T09:50:00Z,26.0070,-85.6480,5.0,5.0,140.0,6.0,'1111122,1111122,1111122' 
NDBC,ioos:station:wmo:42003:1,2013-10-06T10:50:00Z,26.0070,-85.6480,5.0,5.0,140.0,6.0,'1111122,1111122,1111122' 
NDBC,ioos:station:wmo:42003:1,2013-10-06T11:50:00Z,26.0070,-85.6480,5.0,5.0,160.0,6.0,'1111122,1111122,1111122' 
NDBC,ioos:station:wmo:42003:1,2013-10-06T12:50:00Z,26.0070,-85.6480,5.0,5.0,180.0,6.0,'1111122,1111122,1111122' 
NDBC,ioos:station:wmo:42003:1,2013-10-06T13:50:00Z,26.0070,-85.6480,5.0,9.0,250.0,11.0,'1111122,1111122,1111122' 
NDBC,ioos:station:wmo:42003:1,2013-10-06T15:50:00Z,26.0070,-85.6480,5.0,6.0,230.0,8.0,'1111122,1111122,1111122' 
NDBC,ioos:station:wmo:42003:1,2013-10-06T16:50:00Z,26.0070,-85.6480,5.0,5.0,240.0,6.0,'1111122,1111122,1111122' 
NDBC,ioos:station:wmo:42003:1,2013-10-06T17:50:00Z,26.0070,-85.6480,5.0,3.0,250.0,5.0,'1111122,1111122,1111122' 
NDBC,ioos:station:wmo:42003:1,2013-10-06T18:50:00Z,26.0070,-85.6480,5.0,5.0,240.0,6.0,'1111122,1111122,1111122' 
NDBC,ioos:station:wmo:42003:1,2013-10-06T19:50:00Z,26.0070,-85.6480,5.0,6.0,220.0,7.0,'1111122,1111122,1111122' 
NDBC,ioos:station:wmo:42003:1,2013-10-06T20:50:00Z,26.0070,-85.6480,5.0,3.0,220.0,3.0,'1111122,1111122,1111122' 
NDBC,ioos:station:wmo:42003:1,2013-10-06T21:50:00Z,26.0070,-85.6480,5.0,2.0,220.0,3.0,'1111122,1111122,1111122' 
NDBC,ioos:station:wmo:42003:1,2013-10-06T22:50:00Z,26.0070,-85.6480,5.0,4.0,230.0,6.0,'1111122,1111122,1111122' 
NDBC,ioos:station:wmo:42003:1,2013-10-06T23:50:00Z,26.0070,-85.6480,5.0,6.0,220.0,7.0,'1111122,1111122,1111122' 
NDBC,ioos:station:wmo:42003:1,2013-10-07T00:50:00Z,26.0070,-85.6480,5.0,5.0,210.0,7.0,'1111122,1111122,1111122' 
NDBC,ioos:station:wmo:42003:1,2013-10-07T01:50:00Z,26.0070,-85.6480,5.0,6.0,200.0,7.0,'1111122,1111122,1111122' 
NDBC,ioos:station:wmo:42003:1,2013-10-07T02:50:00Z,26.0070,-85.6480,5.0,7.0,200.0,8.0,'1111122,1111122,1111122' 
NDBC,ioos:station:wmo:42003:1,2013-10-07T03:50:00Z,26.0070,-85.6480,5.0,8.0,190.0,9.0,'1111122,1111122,1111122' 
NDBC,ioos:station:wmo:42003:1,2013-10-07T04:50:00Z,26.0070,-85.6480,5.0,8.0,190.0,10.0,'1111122,1111122,1111122' 
NDBC,ioos:station:wmo:42003:1,2013-10-07T05:50:00Z,26.0070,-85.6480,5.0,9.0,190.0,11.0,'1111122,1111122,1111122' 
NDBC,ioos:station:wmo:42003:1,2013-10-07T06:50:00Z,26.0070,-85.6480,5.0,10.0,200.0,12.0,'1111122,1111122,1111122' 
NDBC,ioos:station:wmo:42003:1,2013-10-07T07:50:00Z,26.0070,-85.6480,5.0,10.0,200.0,13.0,'1111122,1111122,1111122' 
NDBC,ioos:station:wmo:42003:1,2013-10-07T08:50:00Z,26.0070,-85.6480,5.0,9.0,210.0,11.0,'1111122,1111122,1111122' 
NDBC,ioos:station:wmo:42003:1,2013-10-07T09:50:00Z,26.0070,-85.6480,5.0,6.0,250.0,8.0,'1111122,1111122,1111122' 
NDBC,ioos:station:wmo:42003:1,2013-10-07T10:50:00Z,26.0070,-85.6480,5.0,6.0,230.0,6.0,'1111122,1111122,1111122' 
NDBC,ioos:station:wmo:42003:1,2013-10-07T11:50:00Z,26.0070,-85.6480,5.0,4.0,250.0,5.0,'1111122,1111122,1111122' 
NDBC,ioos:station:wmo:42003:1,2013-10-07T12:50:00Z,26.0070,-85.6480,5.0,6.0,270.0,7.0,'1111122,1111122,1111122' 
NDBC,ioos:station:wmo:42003:1,2013-10-07T13:50:00Z,26.0070,-85.6480,5.0,9.0,280.0,11.0,'1111122,1111122,1111122' 
NDBC,ioos:station:wmo:42003:1,2013-10-07T14:50:00Z,26.0070,-85.6480,5.0,6.0,280.0,7.0,'1111122,1111122,1111122' 
NDBC,ioos:station:wmo:42003:1,2013-10-07T15:50:00Z,26.0070,-85.6480,5.0,4.0,280.0,5.0,'1111122,1111122,1111122' 
NDBC,ioos:station:wmo:42003:1,2013-10-07T16:50:00Z,26.0070,-85.6480,5.0,6.0,280.0,7.0,'1111122,1111122,1111122' 
NDBC,ioos:station:wmo:42003:1,2013-10-07T17:50:00Z,26.0070,-85.6480,5.0,7.0,290.0,8.0,'1111122,1111122,1111122' 
NDBC,ioos:station:wmo:42003:1,2013-10-07T18:50:00Z,26.0070,-85.6480,5.0,8.0,300.0,10.0,'1111122,1111122,1111122' 
NDBC,ioos:station:wmo:42003:1,2013-10-07T19:50:00Z,26.0070,-85.6480,5.0,8.0,290.0,10.0,'1111122,1111122,1111122' 
NDBC,ioos:station:wmo:42003:1,2013-10-07T20:50:00Z,26.0070,-85.6480,5.0,7.0,280.0,9.0,'1111122,1111122,1111122' 
NDBC,ioos:station:wmo:42003:1,2013-10-07T21:50:00Z,26.0070,-85.6480,5.0,7.0,310.0,8.0,'1111122,1111122,1111122' 
NDBC,ioos:station:wmo:42003:1,2013-10-07T22:50:00Z,26.0070,-85.6480,5.0,8.0,300.0,9.0,'1111122,1111122,1111122' 
NDBC,ioos:station:wmo:42003:1,2013-10-07T23:50:00Z,26.0070,-85.6480,5.0,7.0,300.0,8.0,'1111122,1111122,1111122' 
NDBC,ioos:station:wmo:42003:1,2013-10-08T00:50:00Z,26.0070,-85.6480,5.0,7.0,290.0,8.0,'1111122,1111122,1111122' 
NDBC,ioos:station:wmo:42003:1,2013-10-08T01:50:00Z,26.0070,-85.6480,5.0,7.0,310.0,8.0,'1111122,1111122,1111122' 
NDBC,ioos:station:wmo:42003:1,2013-10-08T02:50:00Z,26.0070,-85.6480,5.0,7.0,310.0,9.0,'1111122,1111122,1111122' 
NDBC,ioos:station:wmo:42003:1,2013-10-08T03:50:00Z,26.0070,-85.6480,5.0,6.0,320.0,7.0,'1111122,1111122,1111122' 
NDBC,ioos:station:wmo:42003:1,2013-10-08T04:50:00Z,26.0070,-85.6480,5.0,6.0,310.0,8.0,'1111122,1111122,1111122' 
NDBC,ioos:station:wmo:42003:1,2013-10-08T05:50:00Z,26.0070,-85.6480,5.0,6.0,300.0,8.0,'1111122,1111122,1111122' 
NDBC,ioos:station:wmo:42003:1,2013-10-08T07:50:00Z,26.0070,-85.6480,5.0,6.0,310.0,7.0,'1111122,1111122,1111122' 
NDBC,ioos:station:wmo:42003:1,2013-10-08T08:50:00Z,26.0070,-85.6480,5.0,5.0,300.0,6.0,'1111122,1111122,1111122' 
NDBC,ioos:station:wmo:42003:1,2013-10-08T09:50:00Z,26.0070,-85.6480,5.0,4.0,300.0,6.0,'1111122,1111122,1111122' 
NDBC,ioos:station:wmo:42003:1,2013-10-08T10:50:00Z,26.0070,-85.6480,5.0,4.0,320.0,6.0,'1111122,1111122,1111122' 
NDBC,ioos:station:wmo:42003:1,2013-10-08T11:50:00Z,26.0070,-85.6480,5.0,3.0,290.0,4.0,'1111122,1111122,1111122' 
NDBC,ioos:station:wmo:42003:1,2013-10-08T12:50:00Z,26.0070,-85.6480,5.0,3.0,280.0,5.0,'1111122,1111122,1111122' 
NDBC,ioos:station:wmo:42003:1,2013-10-08T13:50:00Z,26.0070,-85.6480,5.0,3.0,270.0,4.0,'1111122,1111122,1111122' 
NDBC,ioos:station:wmo:42003:1,2013-10-08T14:50:00Z,26.0070,-85.6480,5.0,3.0,250.0,4.0,'1111122,1111122,1111122' 
NDBC,ioos:station:wmo:42003:1,2013-10-08T16:50:00Z,26.0070,-85.6480,5.0,4.0,270.0,5.0,'1111122,1111122,1111122' 
NDBC,ioos:station:wmo:42003:1,2013-10-08T17:50:00Z,26.0070,-85.6480,5.0,5.0,270.0,6.0,'1111122,1111122,1111122' 
NDBC,ioos:station:wmo:42003:1,2013-10-08T18:50:00Z,26.0070,-85.6480,5.0,5.0,290.0,7.0,'1111122,1111122,1111122' 
NDBC,ioos:station:wmo:42003:1,2013-10-08T19:50:00Z,26.0070,-85.6480,5.0,6.0,310.0,7.0,'1111122,1111122,1111122' 
NDBC,ioos:station:wmo:42003:1,2013-10-08T20:50:00Z,26.0070,-85.6480,5.0,6.0,310.0,7.0,'1111122,1111122,1111122' 
NDBC,ioos:station:wmo:42003:1,2013-10-08T21:50:00Z,26.0070,-85.6480,5.0,6.0,320.0,7.0,'1111122,1111122,1111122' 
NDBC,ioos:station:wmo:42003:1,2013-10-08T22:50:00Z,26.0070,-85.6480,5.0,6.0,320.0,8.0,'1111122,1111122,1111122' 
NDBC,ioos:station:wmo:42003:1,2013-10-08T23:50:00Z,26.0070,-85.6480,5.0,6.0,320.0,8.0,'1111122,1111122,1111122' 
NDBC,ioos:station:wmo:42003:1,2013-10-09T00:50:00Z,26.0070,-85.6480,5.0,5.0,340.0,7.0,'1111122,1111122,1111122' 
NDBC,ioos:station:wmo:42003:1,2013-10-09T01:50:00Z,26.0070,-85.6480,5.0,4.0,340.0,6.0,'1111122,1111122,1111122' 
NDBC,ioos:station:wmo:42003:1,2013-10-09T02:50:00Z,26.0070,-85.6480,5.0,4.0,340.0,5.0,'1111122,1111122,1111122' 
NDBC,ioos:station:wmo:42003:1,2013-10-09T03:50:00Z,26.0070,-85.6480,5.0,4.0,350.0,5.0,'1111122,1111122,1111122' 
NDBC,ioos:station:wmo:42003:1,2013-10-09T04:50:00Z,26.0070,-85.6480,5.0,3.0,10.0,4.0,'1111122,1111122,1111122' 
NDBC,ioos:station:wmo:42003:1,2013-10-09T05:50:00Z,26.0070,-85.6480,5.0,4.0,340.0,4.0,'1111122,1111122,1111122' 
NDBC,ioos:station:wmo:42003:1,2013-10-09T06:50:00Z,26.0070,-85.6480,5.0,4.0,340.0,5.0,'1111122,1111122,1111122' 
NDBC,ioos:station:wmo:42003:1,2013-10-09T07:50:00Z,26.0070,-85.6480,5.0,2.0,360.0,4.0,'1111122,1111122,1111122' 
NDBC,ioos:station:wmo:42003:1,2013-10-09T08:50:00Z,26.0070,-85.6480,5.0,2.0,300.0,3.0,'1111122,1111122,1111122' 
NDBC,ioos:station:wmo:42003:1,2013-10-09T09:50:00Z,26.0070,-85.6480,5.0,2.0,320.0,2.0,'1111122,1111122,1111122' 
NDBC,ioos:station:wmo:42003:1,2013-10-09T10:50:00Z,26.0070,-85.6480,5.0,1.0,340.0,2.0,'1111122,1111122,1111122' 
NDBC,ioos:station:wmo:42003:1,2013-10-09T11:50:00Z,26.0070,-85.6480,5.0,2.0,330.0,3.0,'1111122,1111122,1111122' 
NDBC,ioos:station:wmo:42003:1,2013-10-09T12:50:00Z,26.0070,-85.6480,5.0,3.0,320.0,4.0,'1111122,1111122,1111122' 
NDBC,ioos:station:wmo:42003:1,2013-10-09T13:50:00Z,26.0070,-85.6480,5.0,2.0,320.0,3.0,'1111122,1111122,1111122' 
NDBC,ioos:station:wmo:42003:1,2013-10-09T14:50:00Z,26.0070,-85.6480,5.0,3.0,300.0,3.0,'1111122,1111122,1111122' 
NDBC,ioos:station:wmo:42003:1,2013-10-09T15:50:00Z,26.0070,-85.6480,5.0,3.0,300.0,4.0,'1111122,1111122,1111122' 
NDBC,ioos:station:wmo:42003:1,2013-10-09T16:50:00Z,26.0070,-85.6480,5.0,4.0,290.0,5.0,'1111122,1111122,1111122' 
NDBC,ioos:station:wmo:42003:1,2013-10-09T18:50:00Z,26.0070,-85.6480,5.0,5.0,300.0,6.0,'1111122,1111122,1111122' 
NDBC,ioos:station:wmo:42003:1,2013-10-09T20:50:00Z,26.0070,-85.6480,5.0,5.0,80.0,6.0,'1111122,1111122,1111122' 
NDBC,ioos:station:wmo:42003:1,2013-10-09T21:50:00Z,26.0070,-85.6480,5.0,6.0,80.0,8.0,'1111122,1111122,1111122' 
NDBC,ioos:station:wmo:42003:1,2013-10-09T22:50:00Z,26.0070,-85.6480,5.0,8.0,70.0,10.0,'1111122,1111122,1111122' 
NDBC,ioos:station:wmo:42003:1,2013-10-09T23:50:00Z,26.0070,-85.6480,5.0,8.0,60.0,10.0,'1111122,1111122,1111122' 
NDBC,ioos:station:wmo:42003:1,2013-10-10T00:50:00Z,26.0070,-85.6480,5.0,8.0,60.0,10.0,'1111122,1111122,1111122' 